Time,TemperatureF,DewpointF,PressureIn,WindDirection,WindDirectionDegrees,WindSpeedMPH,WindSpeedGustMPH,Humidity,HourlyPrecipIn,Conditions,Clouds,dailyrainin,SoftwareType,DateUTC
2013-11-06 00:13:00,66.9,65.1,30.09,ESE,112,5.8,-999.0,94,-99.99,,,0.00,Acu-Link.com,2013-11-06 06:13:00,
2013-11-06 00:28:00,66.9,65.4,30.09,ESE,112,4.7,-999.0,95,-99.99,,,0.00,Acu-Link.com,2013-11-06 06:28:00,
2013-11-06 00:43:00,66.7,65.3,30.09,ESE,112,5.8,-999.0,95,-99.99,,,0.00,Acu-Link.com,2013-11-06 06:43:00,
2013-11-06 00:58:00,66.6,65.1,30.09,East,90,4.7,-999.0,95,-99.99,,,0.00,Acu-Link.com,2013-11-06 06:58:00,
2013-11-06 01:14:00,66.6,65.4,30.08,ESE,112,5.8,-999.0,96,-99.99,,,0.00,Acu-Link.com,2013-11-06 07:14:00,
2013-11-06 01:29:00,66.6,65.4,30.08,ESE,112,4.3,-999.0,96,-99.99,,,0.00,Acu-Link.com,2013-11-06 07:29:00,
2013-11-06 01:44:00,66.6,65.4,30.07,ESE,112,4.3,-999.0,96,-99.99,,,0.00,Acu-Link.com,2013-11-06 07:44:00,
2013-11-06 01:59:00,66.6,65.4,30.07,ESE,112,2.7,-999.0,96,-99.99,,,0.00,Acu-Link.com,2013-11-06 07:59:00,
2013-11-06 02:14:00,66.6,65.4,30.07,ESE,112,3.1,-999.0,96,-99.99,,,0.00,Acu-Link.com,2013-11-06 08:14:00,
2013-11-06 02:29:00,66.6,65.7,30.06,East,90,2.7,-999.0,97,-99.99,,,0.00,Acu-Link.com,2013-11-06 08:29:00,
2013-11-06 02:45:00,66.6,65.7,30.06,ESE,112,1.6,-999.0,97,-99.99,,,0.00,Acu-Link.com,2013-11-06 08:45:00,
2013-11-06 03:00:00,66.6,65.7,30.07,ESE,112,0.0,-999.0,97,-99.99,,,0.00,Acu-Link.com,2013-11-06 09:00:00,
2013-11-06 03:15:00,66.6,65.7,30.07,ESE,112,1.6,-999.0,97,-99.99,,,0.00,Acu-Link.com,2013-11-06 09:15:00,
2013-11-06 03:30:00,66.4,66.1,30.07,ENE,67,2.7,-999.0,99,-99.99,,,0.00,Acu-Link.com,2013-11-06 09:30:00,
2013-11-06 03:45:00,66.2,65.9,30.06,ENE,67,2.7,-999.0,99,-99.99,,,0.00,Acu-Link.com,2013-11-06 09:45:00,
2013-11-06 04:01:00,66.2,65.9,30.06,ESE,112,2.7,-999.0,99,-99.99,,,0.00,Acu-Link.com,2013-11-06 10:01:00,
2013-11-06 04:16:00,66.0,65.7,30.06,ENE,67,2.2,-999.0,99,-99.99,,,0.00,Acu-Link.com,2013-11-06 10:16:00,
2013-11-06 04:31:00,66.0,65.7,30.06,East,90,3.1,-999.0,99,-99.99,,,0.00,Acu-Link.com,2013-11-06 10:31:00,
2013-11-06 04:46:00,66.0,65.7,30.06,ENE,67,2.7,-999.0,99,-99.99,,,0.00,Acu-Link.com,2013-11-06 10:46:00,
2013-11-06 05:01:00,66.0,65.7,30.06,East,90,2.7,-999.0,99,-99.99,,,0.00,Acu-Link.com,2013-11-06 11:01:00,
2013-11-06 05:17:00,66.0,65.7,30.06,East,90,3.1,-999.0,99,-99.99,,,0.00,Acu-Link.com,2013-11-06 11:17:00,
2013-11-06 05:32:00,66.0,65.7,30.06,ESE,112,3.1,-999.0,99,-99.99,,,0.00,Acu-Link.com,2013-11-06 11:32:00,
2013-11-06 05:47:00,66.0,65.7,30.06,East,90,3.8,-999.0,99,-99.99,,,0.00,Acu-Link.com,2013-11-06 11:47:00,
2013-11-06 06:02:00,65.7,65.4,30.06,East,90,3.8,-999.0,99,-99.99,,,0.00,Acu-Link.com,2013-11-06 12:02:00,
2013-11-06 06:17:00,65.5,65.2,30.06,East,90,4.7,-999.0,99,-99.99,,,0.00,Acu-Link.com,2013-11-06 12:17:00,
2013-11-06 06:32:00,65.3,65.0,30.06,ESE,112,4.3,-999.0,99,-99.99,,,0.00,Acu-Link.com,2013-11-06 12:32:00,
2013-11-06 06:48:00,65.5,65.2,30.06,East,90,3.8,-999.0,99,-99.99,,,0.00,Acu-Link.com,2013-11-06 12:48:00,
2013-11-06 07:03:00,66.0,65.7,30.06,East,90,4.3,-999.0,99,-99.99,,,0.00,Acu-Link.com,2013-11-06 13:03:00,
2013-11-06 07:18:00,66.4,66.1,30.07,ESE,112,4.7,-999.0,99,-99.99,,,0.00,Acu-Link.com,2013-11-06 13:18:00,
2013-11-06 07:33:00,66.6,66.3,30.07,East,90,3.1,-999.0,99,-99.99,,,0.00,Acu-Link.com,2013-11-06 13:33:00,
2013-11-06 07:48:00,67.1,66.8,30.08,ESE,112,3.8,-999.0,99,-99.99,,,0.00,Acu-Link.com,2013-11-06 13:48:00,
2013-11-06 08:03:00,67.5,66.9,30.08,ESE,112,4.7,-999.0,98,-99.99,,,0.00,Acu-Link.com,2013-11-06 14:03:00,
2013-11-06 08:18:00,68.2,67.3,30.08,ESE,112,6.3,-999.0,97,-99.99,,,0.00,Acu-Link.com,2013-11-06 14:18:00,
2013-11-06 08:33:00,69.1,67.9,30.08,ESE,112,5.1,-999.0,96,-99.99,,,0.00,Acu-Link.com,2013-11-06 14:33:00,
2013-11-06 08:48:00,70.0,68.2,30.08,ESE,112,4.3,-999.0,94,-99.99,,,0.00,Acu-Link.com,2013-11-06 14:48:00,
2013-11-06 09:04:00,70.2,68.3,30.09,South,180,2.2,-999.0,94,-99.99,,,0.00,Acu-Link.com,2013-11-06 15:04:00,
2013-11-06 09:19:00,70.9,68.8,30.09,ESE,112,2.7,-999.0,93,-99.99,,,0.00,Acu-Link.com,2013-11-06 15:19:00,
2013-11-06 09:34:00,72.0,69.8,30.10,ESE,112,5.8,-999.0,93,-99.99,,,0.00,Acu-Link.com,2013-11-06 15:34:00,
2013-11-06 09:49:00,72.3,69.9,30.09,South,180,4.7,-999.0,92,-99.99,,,0.00,Acu-Link.com,2013-11-06 15:49:00,
2013-11-06 10:04:00,72.7,70.2,30.10,SSE,157,4.3,-999.0,92,-99.99,,,0.00,Acu-Link.com,2013-11-06 16:04:00,
2013-11-06 10:20:00,73.4,70.9,30.09,SE,135,3.8,-999.0,92,-99.99,,,0.01,Acu-Link.com,2013-11-06 16:20:00,
2013-11-06 10:35:00,73.8,71.0,30.09,SE,135,5.8,-999.0,91,-99.99,,,0.01,Acu-Link.com,2013-11-06 16:35:00,
2013-11-06 10:50:00,74.7,71.9,30.08,SSE,157,6.7,-999.0,91,-99.99,,,0.01,Acu-Link.com,2013-11-06 16:50:00,
2013-11-06 11:05:00,75.4,71.9,30.08,SSE,157,5.8,-999.0,89,-99.99,,,0.01,Acu-Link.com,2013-11-06 17:05:00,
2013-11-06 11:20:00,75.6,71.7,30.09,SSW,202,5.8,-999.0,88,-99.99,,,0.01,Acu-Link.com,2013-11-06 17:20:00,
2013-11-06 11:36:00,75.9,72.4,30.08,South,180,2.7,-999.0,89,-99.99,,,0.01,Acu-Link.com,2013-11-06 17:36:00,
2013-11-06 11:51:00,75.9,72.4,30.07,WSW,247,4.7,-999.0,89,-99.99,,,0.01,Acu-Link.com,2013-11-06 17:51:00,
2013-11-06 12:06:00,76.1,72.3,30.07,SW,225,4.7,-999.0,88,-99.99,,,0.01,Acu-Link.com,2013-11-06 18:06:00,
2013-11-06 12:21:00,76.1,72.3,30.07,WSW,247,5.1,-999.0,88,-99.99,,,0.01,Acu-Link.com,2013-11-06 18:21:00,
2013-11-06 12:36:00,75.9,72.8,30.07,SW,225,2.7,-999.0,90,-99.99,,,0.01,Acu-Link.com,2013-11-06 18:36:00,
2013-11-06 12:51:00,76.6,72.8,30.05,SW,225,3.8,-999.0,88,-99.99,,,0.01,Acu-Link.com,2013-11-06 18:51:00,
2013-11-06 13:06:00,76.6,73.1,30.05,West,270,5.1,-999.0,89,-99.99,,,0.01,Acu-Link.com,2013-11-06 19:06:00,
2013-11-06 13:22:00,75.6,72.7,30.05,SW,225,5.8,-999.0,91,-99.99,,,0.01,Acu-Link.com,2013-11-06 19:22:00,
2013-11-06 13:37:00,74.7,72.5,30.04,SW,225,3.8,-999.0,93,-99.99,,,0.01,Acu-Link.com,2013-11-06 19:37:00,
2013-11-06 13:52:00,75.6,73.4,30.04,West,270,5.8,-999.0,93,-99.99,,,0.01,Acu-Link.com,2013-11-06 19:52:00,
2013-11-06 14:07:00,75.6,72.7,30.04,SSW,202,4.3,-999.0,91,-99.99,,,0.01,Acu-Link.com,2013-11-06 20:07:00,
2013-11-06 14:22:00,75.4,71.6,30.04,SSW,202,5.8,-999.0,88,-99.99,,,0.01,Acu-Link.com,2013-11-06 20:22:00,
2013-11-06 14:38:00,75.7,72.3,30.03,SSW,202,4.7,-999.0,89,-99.99,,,0.01,Acu-Link.com,2013-11-06 20:38:00,
2013-11-06 14:53:00,76.1,72.3,30.03,SE,135,4.7,-999.0,88,-99.99,,,0.01,Acu-Link.com,2013-11-06 20:53:00,
2013-11-06 15:08:00,76.3,72.1,30.03,ESE,112,3.8,-999.0,87,-99.99,,,0.01,Acu-Link.com,2013-11-06 21:08:00,
2013-11-06 15:23:00,77.4,72.5,30.03,SSW,202,3.1,-999.0,85,-99.99,,,0.01,Acu-Link.com,2013-11-06 21:23:00,
2013-11-06 15:39:00,77.9,72.3,30.03,South,180,3.1,-999.0,83,-99.99,,,0.01,Acu-Link.com,2013-11-06 21:39:00,
2013-11-06 15:54:00,78.6,72.7,30.03,SSE,157,1.1,-999.0,82,-99.99,,,0.01,Acu-Link.com,2013-11-06 21:54:00,
2013-11-06 16:09:00,78.6,72.7,30.04,SW,225,0.0,-999.0,82,-99.99,,,0.01,Acu-Link.com,2013-11-06 22:09:00,
2013-11-06 16:24:00,79.3,73.0,30.04,ESE,112,2.7,-999.0,81,-99.99,,,0.01,Acu-Link.com,2013-11-06 22:24:00,
2013-11-06 16:39:00,78.3,72.3,30.04,ESE,112,0.0,-999.0,82,-99.99,,,0.01,Acu-Link.com,2013-11-06 22:39:00,
2013-11-06 16:54:00,76.8,72.0,30.05,SSE,157,0.0,-999.0,85,-99.99,,,0.01,Acu-Link.com,2013-11-06 22:54:00,
2013-11-06 17:10:00,75.2,72.1,30.06,ENE,67,2.7,-999.0,90,-99.99,,,0.01,Acu-Link.com,2013-11-06 23:10:00,
2013-11-06 17:25:00,74.3,72.1,30.05,ESE,112,2.2,-999.0,93,-99.99,,,0.01,Acu-Link.com,2013-11-06 23:25:00,
2013-11-06 17:40:00,73.8,72.2,30.06,SSW,202,0.0,-999.0,95,-99.99,,,0.02,Acu-Link.com,2013-11-06 23:40:00,
2013-11-06 17:55:00,69.1,68.8,30.09,NW,315,11.4,-999.0,99,-99.99,,,0.83,Acu-Link.com,2013-11-06 23:55:00,
2013-11-06 18:11:00,68.5,68.2,30.09,NNE,22,3.8,-999.0,99,-99.99,,,1.15,Acu-Link.com,2013-11-07 00:11:00,
2013-11-06 18:26:00,68.4,68.1,30.09,NNE,22,3.8,-999.0,99,-99.99,,,1.16,Acu-Link.com,2013-11-07 00:26:00,
2013-11-06 18:41:00,68.2,67.9,30.10,NNW,337,2.7,-999.0,99,-99.99,,,1.17,Acu-Link.com,2013-11-07 00:41:00,
2013-11-06 18:56:00,67.8,67.5,30.11,WNW,292,4.3,-999.0,99,-99.99,,,1.22,Acu-Link.com,2013-11-07 00:56:00,
2013-11-06 19:12:00,67.6,67.3,30.11,NNE,22,2.2,-999.0,99,-99.99,,,1.22,Acu-Link.com,2013-11-07 01:12:00,
2013-11-06 19:27:00,67.5,67.2,30.11,North,0,2.2,-999.0,99,-99.99,,,1.22,Acu-Link.com,2013-11-07 01:27:00,
2013-11-06 19:42:00,67.5,67.2,30.11,NE,45,0.0,-999.0,99,-99.99,,,1.22,Acu-Link.com,2013-11-07 01:42:00,
2013-11-06 19:57:00,67.5,67.2,30.11,NE,45,2.2,-999.0,99,-99.99,,,1.22,Acu-Link.com,2013-11-07 01:57:00,
2013-11-06 20:13:00,67.5,67.2,30.12,NNW,337,2.2,-999.0,99,-99.99,,,1.22,Acu-Link.com,2013-11-07 02:13:00,
2013-11-06 20:28:00,67.5,67.2,30.13,North,0,2.7,-999.0,99,-99.99,,,1.22,Acu-Link.com,2013-11-07 02:28:00,
2013-11-06 20:43:00,67.5,67.2,30.13,NNE,22,2.7,-999.0,99,-99.99,,,1.22,Acu-Link.com,2013-11-07 02:43:00,
2013-11-06 20:58:00,67.3,67.0,30.14,NNW,337,4.3,-999.0,99,-99.99,,,1.22,Acu-Link.com,2013-11-07 02:58:00,
2013-11-06 21:13:00,65.8,65.6,30.14,NNW,337,10.3,-999.0,99,-99.99,,,1.22,Acu-Link.com,2013-11-07 03:13:00,
2013-11-06 21:29:00,64.4,64.1,30.15,WNW,292,7.8,-999.0,99,-99.99,,,1.22,Acu-Link.com,2013-11-07 03:29:00,
2013-11-06 21:44:00,63.5,63.2,30.16,WNW,292,8.9,-999.0,99,-99.99,,,1.22,Acu-Link.com,2013-11-07 03:44:00,
2013-11-06 21:59:00,63.0,62.7,30.17,NNW,337,7.4,-999.0,99,-99.99,,,1.22,Acu-Link.com,2013-11-07 03:59:00,
2013-11-06 22:14:00,62.6,62.3,30.17,NW,315,6.7,-999.0,99,-99.99,,,1.22,Acu-Link.com,2013-11-07 04:14:00,
2013-11-06 22:30:00,61.9,61.6,30.17,NNW,337,6.7,-999.0,99,-99.99,,,1.22,Acu-Link.com,2013-11-07 04:30:00,
2013-11-06 22:45:00,60.4,60.2,30.18,NW,315,6.3,-999.0,99,-99.99,,,1.22,Acu-Link.com,2013-11-07 04:45:00,
2013-11-06 23:00:00,59.5,59.3,30.17,NNW,337,8.9,-999.0,99,-99.99,,,1.22,Acu-Link.com,2013-11-07 05:00:00,
2013-11-06 23:15:00,58.3,58.0,30.18,NNW,337,9.8,-999.0,99,-99.99,,,1.22,Acu-Link.com,2013-11-07 05:15:00,
2013-11-06 23:30:00,57.4,57.1,30.18,NNW,337,7.8,-999.0,99,-99.99,,,1.22,Acu-Link.com,2013-11-07 05:30:00,
2013-11-06 23:46:00,57.0,56.7,30.18,NNW,337,7.8,-999.0,99,-99.99,,,1.22,Acu-Link.com,2013-11-07 05:46:00,